Date String (YYYY-MM-DD hh:mm:ss) UTC,Instrument flags,absolute air pressure of the measurement (hPa),sample flow rate (lpm),inlet stack bypass flow (lpm),air temperature of the measurement (°C),ambient temperature measured by the external sensor (°C),aerosol sample conditioner tube jacket temperature (°C),OPC LED temperature (°C),internal box temperature (°C),relative humidity of the measurement (%),span deviation,mass concentration of particles derived from Lorenz-Mie calculation of OPC scattering (μg/m³),mass concentration of particles derived from Lorenz-Mie calculation of OPC scattering (μg/m³),mass concentration of particles derived from Lorenz-Mie calculation of OPC scattering (μg/m³)
DateTimeUTC,F1_M11,P_M11,Q1_M11,Q2_M11,T1_M11,T2_M11,T3_M11,T4_M11,T5_M11,U1_M11,ZSPAN_M11,X2_M11,X0_M11,X1_M11
2023-08-18 02:00:00,SystemResetWarning,0830.7,5.00,000.00,029.4,026.4,000.0,037.1,030.0,34.1,0000.5,0014.51,0028.03,0013.02
2023-08-18 02:01:00,SystemResetWarning,0830.7,4.98,000.00,029.4,025.2,000.0,037.0,029.7,34.0,0000.5,0014.55,0027.39,0013.01
2023-08-18 02:02:00,SystemResetWarning,0830.7,5.01,000.00,029.3,024.0,000.0,036.9,029.5,34.1,0000.8,0014.63,0028.06,0013.00
2023-08-18 02:03:00,SystemResetWarning,0830.6,5.02,000.00,029.2,023.9,000.0,036.9,029.4,34.5,0001.1,0014.63,0028.05,0013.00
2023-08-18 02:04:00,SystemResetWarning,0830.7,4.99,000.00,029.1,024.2,000.0,036.9,029.3,34.7,0001.1,0014.66,0027.56,0013.02
2023-08-18 02:05:00,SystemResetWarning,0830.7,5.00,000.00,029.0,024.6,000.0,037.0,029.4,34.9,0001.2,0014.68,0027.79,0013.00
2023-08-18 02:06:00,SystemResetWarning,0830.7,5.00,000.00,029.0,025.1,000.0,037.0,029.6,35.1,0001.3,0014.76,0028.18,0013.00
2023-08-18 02:07:00,SystemResetWarning,0830.7,5.01,000.00,029.2,025.5,000.0,037.0,029.8,34.9,0001.3,0014.84,0026.73,0013.07
2023-08-18 02:08:00,SystemResetWarning,0830.7,4.99,000.00,029.4,025.9,000.0,037.1,030.0,34.5,0001.3,0014.81,0026.43,0013.05
2023-08-18 02:09:00,SystemResetWarning,0830.7,5.02,000.00,029.5,026.2,000.0,037.1,030.0,33.8,0001.4,0014.73,0026.41,0013.00
2023-08-18 02:10:00,SystemResetWarning,0830.7,4.99,000.00,029.5,025.9,000.0,037.1,030.0,33.6,0001.7,0014.61,0025.76,0012.93
2023-08-18 02:11:00,SystemResetWarning,0830.7,4.99,000.00,029.5,024.5,000.0,037.0,029.6,33.4,0001.8,0014.61,0025.73,0012.89
2023-08-18 02:12:00,SystemResetWarning,0830.6,5.00,000.00,029.4,023.9,000.0,037.0,029.5,33.5,0001.8,0014.58,0026.04,0012.86
2023-08-18 02:13:00,SystemResetWarning,0830.6,5.01,000.00,029.3,024.0,000.0,037.0,029.3,33.3,0001.8,0014.47,0026.49,0012.80
2023-08-18 02:14:00,SystemResetWarning,0830.5,5.00,000.00,029.2,024.3,000.0,037.0,029.3,33.9,0001.5,0014.44,0026.31,0012.77
2023-08-18 02:15:00,SystemResetWarning,0830.5,5.00,000.00,029.2,024.7,000.0,037.1,029.5,33.5,0000.3,0014.33,0026.62,0012.70
2023-08-18 02:16:00,SystemResetWarning,0830.6,5.00,000.00,029.1,025.2,000.0,037.1,029.6,33.1,0000.1,0014.22,0027.44,0012.66
2023-08-18 02:17:00,SystemResetWarning,0830.5,5.00,000.00,029.1,025.6,000.0,037.1,029.7,32.4,0000.3,0014.09,0026.46,0012.60
2023-08-18 02:18:00,SystemResetWarning,0830.5,5.01,000.00,029.2,026.0,000.0,037.2,029.9,32.2,0000.4,0014.03,0026.45,0012.53
2023-08-18 02:19:00,SystemResetWarning,0830.5,5.00,000.00,029.2,026.3,000.0,037.2,029.9,32.6,0000.6,0013.99,0026.90,0012.47
2023-08-18 02:20:00,SystemResetWarning,0830.6,5.00,000.00,029.2,026.2,000.0,037.2,029.9,32.0,0000.6,0014.02,0029.11,0012.43
2023-08-18 02:21:00,SystemResetWarning,0830.5,4.99,000.00,029.1,024.8,000.0,037.1,029.6,32.0,0000.3,0013.97,0029.26,0012.41
2023-08-18 02:22:00,SystemResetWarning,0830.4,5.00,000.00,029.1,023.9,000.0,037.0,029.5,32.2,0000.4,0013.89,0029.00,0012.34
2023-08-18 02:23:00,SystemResetWarning,0830.4,5.00,000.00,029.0,023.9,000.0,036.9,029.3,32.1,0000.6,0013.77,0028.77,0012.25
2023-08-18 02:24:00,SystemResetWarning,0830.7,5.01,000.00,028.8,024.3,000.0,037.0,029.3,32.5,0000.6,0013.63,0028.13,0012.15
2023-08-18 02:25:00,SystemResetWarning,0830.5,5.01,000.00,028.8,024.7,000.0,037.0,029.4,32.6,0000.8,0013.50,0027.77,0012.03
2023-08-18 02:26:00,SystemResetWarning,0830.4,5.00,000.00,028.8,025.2,000.0,037.0,029.6,32.7,0001.6,0013.41,0027.10,0011.92
2023-08-18 02:27:00,SystemResetWarning,0830.7,5.00,000.00,028.8,025.6,000.0,037.0,029.7,33.0,0001.6,0013.34,0026.54,0011.83
2023-08-18 02:28:00,SystemResetWarning,0830.5,4.99,000.00,028.8,025.9,000.0,037.0,029.8,33.1,0001.8,0013.21,0026.36,0011.76
2023-08-18 02:29:00,SystemResetWarning,0830.5,5.00,000.00,028.8,026.3,000.0,037.0,029.9,33.2,0001.9,0013.11,0026.21,0011.71
2023-08-18 02:30:00,SystemResetWarning,0830.5,5.00,000.00,028.8,026.3,000.0,037.0,029.9,33.2,0001.9,0013.06,0025.58,0011.69
2023-08-18 02:31:00,SystemResetWarning,0830.5,4.99,000.00,028.8,025.0,000.0,036.9,029.6,33.5,0001.9,0013.01,0023.44,0011.68
2023-08-18 02:32:00,SystemResetWarning,0830.4,5.01,000.00,028.7,024.0,000.0,036.8,029.4,33.6,0002.2,0013.03,0022.86,0011.68
2023-08-18 02:33:00,SystemResetWarning,0830.5,5.01,000.00,028.6,023.9,000.0,036.7,029.3,33.6,0002.9,0013.00,0022.22,0011.67
2023-08-18 02:34:00,SystemResetWarning,0830.4,5.00,000.00,028.5,024.2,000.0,036.7,029.1,34.0,0002.5,0013.00,0021.95,0011.69
2023-08-18 02:35:00,SystemResetWarning,0830.5,5.01,000.00,028.4,024.6,000.0,036.7,029.3,34.2,0002.2,0012.98,0021.71,0011.72
2023-08-18 02:36:00,SystemResetWarning,0830.8,5.00,000.00,028.4,025.0,000.0,036.8,029.4,34.3,0002.1,0013.01,0021.61,0011.75
2023-08-18 02:37:00,SystemResetWarning,0830.5,5.00,000.00,028.4,025.5,000.0,036.8,029.5,34.2,0002.0,0013.01,0022.37,0011.77
2023-08-18 02:38:00,SystemResetWarning,0830.6,4.99,000.00,028.4,025.8,000.0,036.8,029.7,34.2,0002.2,0013.01,0021.28,0011.76
2023-08-18 02:39:00,SystemResetWarning,0830.5,5.00,000.00,028.5,026.1,000.0,036.8,029.7,34.1,0001.6,0013.01,0021.05,0011.75
2023-08-18 02:40:00,SystemResetWarning,0830.5,5.00,000.00,028.5,026.4,000.0,036.8,029.8,34.2,0001.2,0013.00,0020.82,0011.71
2023-08-18 02:41:00,SystemResetWarning,0830.6,5.00,000.00,028.5,026.0,000.0,036.7,029.8,34.3,0001.0,0012.96,0020.80,0011.66
2023-08-18 02:42:00,SystemResetWarning,0830.6,5.00,000.00,028.5,024.5,000.0,036.6,029.5,34.7,0001.4,0012.85,0020.41,0011.61
2023-08-18 02:43:00,SystemResetWarning,0830.5,5.01,000.00,028.4,023.8,000.0,036.5,029.3,35.4,0001.8,0012.73,0020.51,0011.53
2023-08-18 02:44:00,SystemResetWarning,0830.4,5.01,000.00,028.5,023.9,000.0,036.5,029.2,36.0,0001.4,0012.64,0021.52,0011.45
2023-08-18 02:45:00,SystemResetWarning,0830.4,4.99,000.00,028.7,024.3,000.0,036.5,029.4,35.3,0001.5,0012.54,0021.18,0011.34
2023-08-18 02:46:00,SystemResetWarning,0830.6,5.01,000.00,029.0,024.7,000.0,036.6,029.6,34.5,0001.9,0012.42,0021.24,0011.22
2023-08-18 02:47:00,SystemResetWarning,0830.6,4.98,000.00,029.2,025.2,000.0,036.6,029.7,34.2,0001.8,0012.26,0020.67,0011.11
2023-08-18 02:48:00,SystemResetWarning,0830.8,5.01,000.00,029.3,025.6,000.0,036.7,029.8,33.2,0001.7,0012.20,0019.73,0011.03
2023-08-18 02:49:00,SystemResetWarning,0830.6,5.01,000.00,029.4,025.9,000.0,036.8,029.9,32.7,0001.8,0012.09,0019.98,0010.94
2023-08-18 02:50:00,SystemResetWarning,0830.6,4.99,000.00,029.5,026.2,000.0,036.9,030.0,32.5,0002.2,0012.00,0019.53,0010.89
2023-08-18 02:51:00,SystemResetWarning,0830.6,5.00,000.00,029.6,026.5,000.0,037.0,030.0,32.4,0002.3,0011.96,0020.42,0010.83
2023-08-18 02:52:00,SystemResetWarning,0830.6,4.98,000.00,029.6,025.5,000.0,037.0,029.9,32.2,0002.5,0011.89,0020.43,0010.79
2023-08-18 02:53:00,SystemResetWarning,0830.5,5.01,000.00,029.6,024.1,000.0,037.0,029.6,32.2,0002.3,0011.86,0020.60,0010.76
2023-08-18 02:54:00,SystemResetWarning,0830.5,5.01,000.00,029.5,023.8,000.0,037.0,029.5,32.3,0001.9,0011.86,0020.37,0010.74
2023-08-18 02:55:00,SystemResetWarning,0830.6,5.01,000.00,029.4,024.0,000.0,037.0,029.3,32.3,0001.3,0011.90,0020.71,0010.75
2023-08-18 02:56:00,SystemResetWarning,0830.7,4.99,000.00,029.3,024.4,000.0,037.1,029.4,32.5,0001.5,0011.92,0021.47,0010.78
2023-08-18 02:57:00,SystemResetWarning,0830.6,5.00,000.00,029.2,024.9,000.0,037.1,029.5,32.6,0001.0,0011.97,0021.55,0010.84
2023-08-18 02:58:00,SystemResetWarning,0830.6,5.01,000.00,029.2,025.3,000.0,037.1,029.7,33.8,0001.1,0012.07,0021.50,0010.88
2023-08-18 02:59:00,SystemResetWarning,0830.6,5.00,000.00,029.2,025.7,000.0,037.2,029.8,34.0,0001.3,0012.13,0021.43,0010.95
